Weather History for Palmdale, CA

Change the Weather History Date:

Saturday, November 16, 2013

  Actual Average Record
Temperature  
Mean Temperature 55 °F 51 °F  
Max Temperature 62 °F 67 °F 85 °F (1995)
Min Temperature 47 °F 36 °F 22 °F (1956)
Degree Days  
Heating Degree Days 10 14  
Month to date heating degree days 142 171  
Since 1 July heating degree days 303 298  
Cooling Degree Days 0 0  
Month to date cooling degree days 0 0  
Year to date cooling degree days 2126 1814  
Growing Degree Days 5 (Base 50)    
Moisture  
Dew Point 42 °F    
Average Humidity 62    
Maximum Humidity 80    
Minimum Humidity 43    
Precipitation  
Precipitation 0.00 in 0.02 in 0.75 in (1934)
Month to date precipitation 0.00 0.42  
Year to date precipitation 1.07 6.87  
Since 1 July precipitation 0.21 1.55  
Snow  
Snow 0.00 in - T in (1958)
Month to date snowfall 0.0  
Since 1 July snowfall 0.0  
Since 1 September snowfall 0.0  
Snow Depth 0.00 in    
Sea Level Pressure  
Sea Level Pressure 29.77 in    
Wind  
Wind Speed 18 mph (SW)    
Max Wind Speed 29 mph    
Max Gust Speed 35 mph    
Visibility 10 miles    
Events      
T = Trace of Precipitation, MM = Missing Value Source: NWS Daily Summary

Daily Weather History Graph

Daily Weather History Graph

Search for Another Location

Airport:

Trip Planner

Search our weather history database for the weather conditions in past years. The results will help you decide how hot, cold, wet, or windy it might be!

Date:

Astronomy

Nov. 16, 2013 Rise Set
Actual Time 6:27 AM PST 4:46 PM PST
Civil Twilight 6:00 AM PST 5:13 PM PST
Nautical Twilight 5:29 AM PST 5:44 PM PST
Astronomical Twilight 5:00 AM PST 6:13 PM PST
Moon 4:23 PM PST (11/16) 5:30 AM PST (11/16)
Length of Visible Light 11h 13m
Length of Day
10h 19m
Waxing Gibbous, 99% of the Moon is Illuminated
Nov 16
Waxing Gibbous
Nov 17
Full
Nov 25
Last Quarter
Dec 2
New
Dec 9
First Quarter

Hourly Weather History & Observations

Time (PST) Temp. Dew Point Humidity Pressure Visibility Wind Dir Wind Speed Gust Speed Precip Events Conditions
12:53 AM 48.9 °F 42.1 °F 77% 29.71 in 10.0 mi West 8.1 mph - N/A   Clear
1:53 AM 50.0 °F 44.1 °F 80% 29.70 in 10.0 mi SSW 10.4 mph - N/A   Clear
2:53 AM 48.0 °F 42.1 °F 80% 29.73 in 10.0 mi WNW 8.1 mph - N/A   Clear
3:53 AM 48.9 °F 42.1 °F 77% 29.72 in 10.0 mi SW 10.4 mph - N/A   Clear
4:53 AM 51.1 °F 43.0 °F 74% 29.71 in 10.0 mi SW 12.7 mph - N/A   Clear
5:53 AM 51.1 °F 43.0 °F 74% 29.73 in 10.0 mi SW 13.8 mph - N/A   Clear
6:53 AM 52.0 °F 42.1 °F 69% 29.74 in 10.0 mi WSW 15.0 mph - N/A   Clear
7:53 AM 54.0 °F 42.1 °F 64% 29.78 in 10.0 mi WSW 18.4 mph - N/A   Clear
8:53 AM 57.0 °F 41.0 °F 55% 29.78 in 10.0 mi SW 18.4 mph 26.5 mph N/A   Clear
9:53 AM 59.0 °F 42.1 °F 53% 29.78 in 10.0 mi SW 23.0 mph 32.2 mph N/A   Clear
10:53 AM 60.1 °F 41.0 °F 49% 29.78 in 10.0 mi WSW 19.6 mph - N/A   Clear
11:53 AM 61.0 °F 39.9 °F 46% 29.75 in 10.0 mi SW 26.5 mph 31.1 mph N/A   Clear
12:53 PM 62.1 °F 39.0 °F 43% 29.74 in 10.0 mi WSW 21.9 mph 29.9 mph N/A   Clear
1:53 PM 61.0 °F 39.9 °F 46% 29.75 in 10.0 mi SW 23.0 mph 31.1 mph N/A   Clear
2:53 PM 60.1 °F 41.0 °F 49% 29.75 in 10.0 mi SW 25.3 mph 31.1 mph N/A   Clear
3:53 PM 57.9 °F 41.0 °F 53% 29.75 in 10.0 mi SW 24.2 mph - N/A   Clear
4:53 PM 55.0 °F 42.1 °F 62% 29.76 in 10.0 mi SW 24.2 mph 29.9 mph N/A   Clear
5:53 PM 54.0 °F 42.1 °F 64% 29.78 in 10.0 mi SW 23.0 mph 29.9 mph N/A   Clear
6:53 PM 52.0 °F 42.1 °F 69% 29.81 in 10.0 mi SW 20.7 mph - N/A   Clear
7:53 PM 51.1 °F 43.0 °F 74% 29.83 in 10.0 mi SW 26.5 mph - N/A   Clear
8:53 PM 52.0 °F 42.1 °F 69% 29.84 in 10.0 mi SW 16.1 mph - N/A   Clear
9:53 PM 50.0 °F 42.1 °F 74% 29.86 in 10.0 mi SW 15.0 mph - N/A   Clear
10:53 PM 50.0 °F 42.1 °F 74% 29.88 in 10.0 mi SW 11.5 mph - N/A   Clear
11:53 PM 48.9 °F 42.1 °F 77% 29.89 in 10.0 mi SW 8.1 mph - N/A   Clear